Santa Fe, NM

11:07 PM MDT on June 28, 2017 (GMT -0600)
Santa Fe Municipal

Weather History for KSAF - December, 2012

Change the Weather History Date:

Tuesday, December 4, 2012

  Actual Average Record
Temperature  
Mean Temperature 39 °F -  
Max Temperature 52 °F 54 °F 62 °F (1977)
Min Temperature 26 °F 20 °F 12 °F (2006)
Degree Days  
Heating Degree Days 26    
Moisture  
Dew Point 22 °F    
Average Humidity 55    
Maximum Humidity 82    
Minimum Humidity 31    
Precipitation  
Precipitation 0.00 in - - ()
Sea Level Pressure  
Sea Level Pressure 30.29 in    
Wind  
Wind Speed 5 mph (North)    
Max Wind Speed 10 mph    
Max Gust Speed -    
Visibility 10 miles    
Events      
Averages and records for this station are not official NWS values.
T = Trace of Precipitation, MM = Missing Value Source: NWS Daily Summary

Daily Weather History Graph

Daily Weather History Graph

Search for Another Location

Airport or City:

Trip Planner

Search our weather history database for the weather conditions in past years. The results will help you decide how hot, cold, wet, or windy it might be!

Date:

Astronomy

Dec. 04, 2012 Rise Set
Actual Time 6:58 AM MST 4:50 PM MST
Civil Twilight 6:30 AM MST 5:19 PM MST
Nautical Twilight 5:58 AM MST 5:50 PM MST
Astronomical Twilight 5:27 AM MST 6:21 PM MST
Moon 10:33 PM MST (12/4) 11:01 AM MST (12/4)
Length of Visible Light 10h 48m
Length of Day
9h 52m
Waning Gibbous, 69% of the Moon is Illuminated
Dec 4
Waning Gibbous
Dec 6
Last Quarter
Dec 13
New
Dec 19
First Quarter
Dec 28
Full

Hourly Weather History & Observations

Time (MST) Temp. Windchill Dew Point Humidity Pressure Visibility Wind Dir Wind Speed Gust Speed Precip Events Conditions
12:53 AM 39.0 °F - 27.0 °F 62% 30.13 in 10.0 mi Calm Calm - N/A   Clear
1:53 AM 36.0 °F - 26.1 °F 67% 30.14 in 10.0 mi Calm Calm - N/A   Clear
2:53 AM 30.9 °F 27.5 °F 24.1 °F 76% 30.17 in 10.0 mi East 3.5 mph - N/A   Clear
3:53 AM 28.9 °F 23.9 °F 23.0 °F 78% 30.20 in 10.0 mi East 4.6 mph - N/A   Clear
4:53 AM 26.1 °F 18.4 °F 21.0 °F 81% 30.25 in 10.0 mi North 6.9 mph - N/A   Clear
5:53 AM 26.1 °F 19.4 °F 21.0 °F 81% 30.31 in 10.0 mi North 5.8 mph - N/A   Clear
6:53 AM 28.9 °F 19.8 °F 24.1 °F 82% 30.31 in 10.0 mi NNE 10.4 mph - N/A   Clear
7:53 AM 34.0 °F 26.0 °F 26.1 °F 73% 30.33 in 10.0 mi NNE 10.4 mph - N/A   Clear
8:53 AM 37.9 °F 31.5 °F 27.0 °F 65% 30.34 in 10.0 mi North 9.2 mph - N/A   Clear
9:53 AM 42.1 °F 36.6 °F 27.0 °F 55% 30.38 in 10.0 mi NNE 9.2 mph - N/A   Clear
10:53 AM 45.0 °F 40.6 °F 27.0 °F 49% 30.37 in 10.0 mi North 8.1 mph - N/A   Clear
11:53 AM 48.9 °F - 26.1 °F 41% 30.33 in 10.0 mi Variable 6.9 mph - N/A   Clear
12:53 PM 48.9 °F - 24.1 °F 38% 30.30 in 10.0 mi NW 5.8 mph - N/A   Clear
1:53 PM 50.0 °F - 26.1 °F 39% 30.28 in 10.0 mi WSW 6.9 mph - N/A   Clear
2:53 PM 52.0 °F - 25.0 °F 35% 30.27 in 10.0 mi WSW 5.8 mph - N/A   Clear
3:53 PM 50.0 °F - 19.9 °F 31% 30.27 in 10.0 mi WSW 8.1 mph - N/A   Clear
4:53 PM 45.0 °F 42.6 °F 16.0 °F 31% 30.32 in 10.0 mi West 4.6 mph - N/A   Clear
5:53 PM 39.9 °F 35.8 °F 16.0 °F 38% 30.37 in 10.0 mi NW 5.8 mph - N/A   Clear
6:53 PM 37.0 °F 33.3 °F 17.1 °F 44% 30.37 in 10.0 mi NNW 4.6 mph - N/A   Clear
7:53 PM 35.1 °F 30.1 °F 18.0 °F 50% 30.35 in 10.0 mi North 5.8 mph - N/A   Clear
8:53 PM 35.1 °F 32.2 °F 18.0 °F 50% 30.31 in 10.0 mi North 3.5 mph - N/A   Clear
9:53 PM 35.1 °F - 17.1 °F 48% 30.31 in 10.0 mi Calm Calm - N/A   Clear
10:53 PM 34.0 °F 27.2 °F 19.0 °F 54% 30.31 in 10.0 mi NNE 8.1 mph - N/A   Clear
11:53 PM 32.0 °F 25.6 °F 18.0 °F 56% 30.27 in 10.0 mi NNW 6.9 mph - N/A   Clear